Weather History for Rhinelander, WI

Change the Weather History Date:

Saturday, January 5, 2013

  Actual Average Record
Temperature  
Mean Temperature 14 °F 12 °F  
Max Temperature 27 °F 22 °F 41 °F (1946)
Min Temperature 1 °F 4 °F -29 °F (1972)
Degree Days  
Heating Degree Days 51 52  
Month to date heating degree days 254 260  
Since 1 July heating degree days 3684 3886  
Cooling Degree Days 0 0  
Month to date cooling degree days 0 0  
Year to date cooling degree days 0 0  
Moisture  
Dew Point 11 °F    
Average Humidity 78    
Maximum Humidity 92    
Minimum Humidity 63    
Precipitation  
Precipitation 0.00 in 0.04 in 1.00 in (1946)
Month to date precipitation T 0.19  
Year to date precipitation T 0.19  
Snow  
Snow 0.00 in - 6.00 in (1932)
Month to date snowfall T  
Since 1 July snowfall 17.7  
Snow Depth 5.00 in    
Sea Level Pressure  
Sea Level Pressure 30.00 in    
Wind  
Wind Speed 4 mph (SW)    
Max Wind Speed 13 mph    
Max Gust Speed 22 mph    
Visibility 9 miles    
Events      
T = Trace of Precipitation, MM = Missing Value Source: NWS Daily Summary

Daily Weather History Graph

Daily Weather History Graph

Search for Another Location

Airport:

Trip Planner

Search our weather history database for the weather conditions in past years. The results will help you decide how hot, cold, wet, or windy it might be!

Date:

Astronomy

Jan. 05, 2013 Rise Set
Actual Time 7:38 AM CST 4:29 PM CST
Civil Twilight 7:04 AM CST 5:02 PM CST
Nautical Twilight 6:26 AM CST 5:40 PM CST
Astronomical Twilight 5:51 AM CST 6:16 PM CST
Moon 12:34 AM CST (1/5) 11:28 AM CST (1/5)
Length of Visible Light 9h 58m
Length of Day
8h 50m
Last Quarter, 44% of the Moon is Illuminated
Jan 5
Last Quarter
Jan 11
New
Jan 18
First Quarter
Jan 26
Full
Feb 3
Last Quarter

Hourly Weather History & Observations

Time (CST) Temp. Windchill Dew Point Humidity Pressure Visibility Wind Dir Wind Speed Gust Speed Precip Events Conditions
12:53 AM 12.9 °F 5.2 °F 10.0 °F 88% 30.17 in 10.0 mi West 4.6 mph - N/A   Clear
1:53 AM 8.1 °F - 6.1 °F 92% 30.17 in 7.0 mi Calm Calm - N/A   Clear
2:53 AM 5.0 °F - 1.9 °F 87% 30.17 in 9.0 mi Calm Calm - N/A   Clear
3:53 AM 3.0 °F - -0.0 °F 87% 30.14 in 10.0 mi Calm Calm - N/A   Clear
4:53 AM 3.0 °F - -0.0 °F 87% 30.17 in 10.0 mi Calm Calm - N/A   Clear
5:53 AM 6.1 °F -0.9 °F 1.9 °F 83% 30.14 in 9.0 mi East 3.5 mph - N/A   Clear
6:53 AM 10.0 °F 3.6 °F 7.0 °F 87% 30.11 in 9.0 mi ESE 3.5 mph - N/A   Clear
7:53 AM 12.0 °F 5.9 °F 9.0 °F 88% 30.10 in 10.0 mi ESE 3.5 mph - N/A   Clear
8:53 AM 16.0 °F 7.4 °F 12.9 °F 88% 30.07 in 10.0 mi ESE 5.8 mph - N/A   Clear
9:53 AM 21.0 °F 13.4 °F 17.1 °F 85% 30.07 in 10.0 mi South 5.8 mph - N/A   Clear
10:53 AM 24.1 °F 13.7 °F 16.0 °F 71% 30.04 in 10.0 mi South 10.4 mph - N/A   Clear
11:53 AM 25.0 °F 17.1 °F 15.1 °F 66% 30.00 in 10.0 mi South 6.9 mph - N/A   Clear
12:53 PM 25.0 °F 16.3 °F 15.1 °F 66% 29.95 in 10.0 mi SSE 8.1 mph - N/A   Clear
1:53 PM 26.1 °F 21.9 °F 16.0 °F 66% 29.91 in 10.0 mi South 3.5 mph - N/A   Clear
2:53 PM 26.1 °F 20.5 °F 15.1 °F 63% 29.91 in 10.0 mi WSW 4.6 mph - N/A   Clear
3:53 PM 24.1 °F 19.7 °F 15.1 °F 69% 29.89 in 10.0 mi WSW 3.5 mph - N/A   Clear
4:53 PM 23.0 °F - 15.1 °F 72% 29.89 in 8.0 mi Calm Calm - N/A   Clear
5:53 PM 23.0 °F 18.4 °F 15.1 °F 72% 29.88 in 10.0 mi WSW 3.5 mph - N/A   Clear
6:53 PM 19.0 °F 11.1 °F 12.9 °F 77% 29.90 in 9.0 mi West 5.8 mph - N/A   Clear
7:53 PM 19.9 °F 12.1 °F 14.0 °F 78% 29.90 in 9.0 mi West 5.8 mph - N/A   Clear
8:53 PM 18.0 °F 8.7 °F 12.9 °F 81% 29.89 in 9.0 mi West 6.9 mph - N/A   Partly Cloudy
9:53 PM 19.0 °F 11.1 °F 12.9 °F 77% 29.88 in 9.0 mi WNW 5.8 mph - N/A   Clear
10:53 PM 18.0 °F 9.8 °F 12.9 °F 81% 29.89 in 8.0 mi West 5.8 mph - N/A   Scattered Clouds
11:00 PM 17.6 °F 10.7 °F 12.2 °F 79% 29.81 in 8.0 mi West 4.6 mph - N/A   Mostly Cloudy
11:53 PM 19.0 °F 11.1 °F 14.0 °F 81% 29.87 in 8.0 mi West 5.8 mph - N/A   Mostly Cloudy